Precipitable_Water
0.83 0.82 0.85 0.89 0.91 0.90 0.88 0.83 0.77 0.73 0.69 0.68 0.65 0.63 0.60 0.58 0.58 0.59 0.60 0.59 0.60 0.58 0.57 0.56 0.55 0.53 0.51 0.50 0.48 0.46 0.44 0.42 0.43 0.42 0.41 0.41 0.41 0.40 0.40 0.39 0.36 0.36 0.35 0.34 0.35 0.35 0.34 0.33 0.34 0.36 0.38 0.37 0.38 0.39 0.40 0.40 0.42 0.42 0.43 0.43 0.41 0.43 0.42 0.40 0.36 0.34 0.35 0.44 0.46 0.46 0.53 0.57 0.55 0.62 0.60 0.62 0.66 0.79 0.91 0.93 0.90 0.88 0.90 0.91 0.91
0.82 0.82 0.83 0.83 0.84 0.87 0.87 0.89 0.86 0.82 0.75 0.71 0.68 0.66 0.64 0.62 0.61 0.62 0.60 0.61 0.62 0.60 0.59 0.59 0.59 0.57 0.52 0.49 0.47 0.45 0.43 0.42 0.41 0.40 0.40 0.40 0.39 0.40 0.38 0.36 0.34 0.33 0.33 0.32 0.33 0.33 0.34 0.33 0.33 0.34 0.35 0.35 0.36 0.36 0.37 0.38 0.39 0.39 0.39 0.41 0.41 0.42 0.46 0.41 0.38 0.35 0.29 0.33 0.38 0.44 0.45 0.52 0.48 0.59 0.60 0.62 0.65 0.70 0.76 0.84 0.89 0.88 0.86 0.90 0.91
0.87 0.87 0.87 0.86 0.86 0.91 0.93 0.92 0.89 0.85 0.81 0.77 0.72 0.70 0.69 0.67 0.66 0.63 0.62 0.62 0.64 0.62 0.61 0.61 0.61 0.59 0.54 0.50 0.47 0.44 0.43 0.41 0.40 0.39 0.40 0.40 0.38 0.37 0.37 0.35 0.33 0.32 0.31 0.30 0.30 0.31 0.31 0.32 0.33 0.35 0.35 0.33 0.34 0.35 0.37 0.37 0.38 0.37 0.37 0.40 0.38 0.40 0.43 0.44 0.41 0.36 0.34 0.31 0.37 0.37 0.41 0.48 0.48 0.48 0.56 0.63 0.67 0.72 0.75 0.78 0.81 0.81 0.81 0.84 0.88
0.86 0.86 0.85 0.86 0.88 0.87 0.81 0.85 0.91 0.91 0.84 0.80 0.78 0.76 0.74 0.72 0.70 0.66 0.65 0.65 0.64 0.64 0.64 0.63 0.62 0.60 0.56 0.52 0.49 0.45 0.43 0.41 0.40 0.40 0.40 0.40 0.38 0.37 0.36 0.35 0.34 0.32 0.31 0.30 0.30 0.30 0.29 0.29 0.31 0.34 0.35 0.33 0.33 0.34 0.36 0.37 0.37 0.37 0.37 0.38 0.38 0.38 0.40 0.42 0.43 0.41 0.39 0.34 0.34 0.38 0.41 0.42 0.44 0.49 0.53 0.59 0.62 0.66 0.75 0.82 0.86 0.83 0.82 0.83 0.85
0.84 0.85 0.84 0.83 0.86 0.87 0.85 0.82 0.80 0.82 0.85 0.83 0.79 0.79 0.78 0.77 0.75 0.69 0.67 0.67 0.67 0.66 0.65 0.65 0.63 0.59 0.55 0.52 0.50 0.48 0.45 0.43 0.42 0.42 0.42 0.41 0.39 0.38 0.36 0.35 0.34 0.32 0.31 0.30 0.30 0.30 0.29 0.28 0.29 0.30 0.31 0.31 0.32 0.32 0.34 0.34 0.36 0.37 0.37 0.38 0.38 0.39 0.40 0.41 0.42 0.43 0.41 0.37 0.35 0.39 0.42 0.42 0.44 0.45 0.49 0.48 0.52 0.61 0.70 0.76 0.82 0.84 0.86 0.87 0.85
0.82 0.83 0.83 0.83 0.82 0.84 0.85 0.83 0.80 0.79 0.81 0.84 0.82 0.79 0.78 0.79 0.80 0.77 0.73 0.70 0.70 0.70 0.67 0.67 0.65 0.60 0.57 0.54 0.53 0.51 0.49 0.46 0.44 0.43 0.42 0.42 0.41 0.39 0.38 0.36 0.34 0.32 0.32 0.31 0.31 0.30 0.29 0.29 0.29 0.29 0.28 0.27 0.28 0.30 0.31 0.31 0.33 0.34 0.35 0.37 0.39 0.40 0.39 0.40 0.42 0.42 0.41 0.39 0.38 0.35 0.40 0.40 0.39 0.41 0.45 0.50 0.49 0.49 0.57 0.68 0.79 0.83 0.85 0.86 0.86
0.75 0.78 0.81 0.82 0.82 0.81 0.81 0.82 0.84 0.83 0.82 0.81 0.83 0.84 0.82 0.80 0.78 0.77 0.75 0.71 0.69 0.69 0.70 0.69 0.67 0.64 0.60 0.57 0.55 0.54 0.52 0.49 0.46 0.45 0.44 0.43 0.41 0.39 0.37 0.36 0.34 0.34 0.33 0.33 0.32 0.31 0.30 0.29 0.29 0.28 0.28 0.28 0.27 0.28 0.28 0.29 0.30 0.31 0.32 0.34 0.35 0.36 0.36 0.36 0.37 0.37 0.37 0.37 0.37 0.38 0.37 0.41 0.43 0.37 0.44 0.49 0.48 0.49 0.48 0.52 0.63 0.78 0.84 0.86 0.84
0.63 0.69 0.73 0.76 0.79 0.79 0.80 0.80 0.81 0.82 0.85 0.86 0.87 0.89 0.89 0.90 0.86 0.82 0.79 0.71 0.67 0.66 0.68 0.69 0.68 0.66 0.64 0.61 0.60 0.57 0.53 0.50 0.48 0.47 0.46 0.43 0.41 0.39 0.37 0.36 0.34 0.34 0.33 0.32 0.31 0.30 0.30 0.29 0.29 0.28 0.28 0.28 0.29 0.29 0.30 0.29 0.30 0.29 0.31 0.32 0.32 0.33 0.33 0.34 0.34 0.34 0.34 0.34 0.34 0.34 0.36 0.37 0.40 0.44 0.44 0.43 0.40 0.42 0.49 0.52 0.51 0.62 0.74 0.83 0.86
0.50 0.56 0.61 0.64 0.70 0.78 0.80 0.81 0.82 0.81 0.81 0.82 0.86 0.85 0.88 0.93 0.93 0.89 0.83 0.76 0.72 0.70 0.69 0.69 0.67 0.66 0.66 0.65 0.63 0.60 0.56 0.53 0.51 0.48 0.46 0.43 0.41 0.38 0.36 0.34 0.32 0.30 0.29 0.29 0.29 0.29 0.29 0.29 0.28 0.28 0.29 0.29 0.30 0.31 0.31 0.31 0.30 0.29 0.30 0.31 0.31 0.31 0.31 0.32 0.33 0.33 0.33 0.33 0.32 0.34 0.33 0.33 0.36 0.37 0.38 0.38 0.37 0.37 0.45 0.52 0.51 0.58 0.68 0.73 0.81
0.43 0.45 0.49 0.55 0.62 0.70 0.77 0.80 0.81 0.82 0.81 0.81 0.84 0.83 0.82 0.83 0.85 0.89 0.86 0.81 0.75 0.73 0.69 0.66 0.64 0.65 0.65 0.65 0.63 0.62 0.59 0.57 0.54 0.50 0.47 0.43 0.39 0.35 0.32 0.30 0.30 0.29 0.28 0.28 0.28 0.29 0.29 0.30 0.30 0.30 0.31 0.31 0.31 0.31 0.32 0.32 0.33 0.32 0.31 0.31 0.31 0.30 0.30 0.29 0.29 0.30 0.31 0.30 0.31 0.32 0.30 0.30 0.32 0.35 0.37 0.40 0.44 0.45 0.43 0.43 0.43 0.49 0.59 0.65 0.72
0.39 0.43 0.45 0.51 0.58 0.65 0.69 0.74 0.79 0.80 0.80 0.81 0.82 0.82 0.77 0.79 0.81 0.82 0.81 0.81 0.78 0.74 0.72 0.67 0.65 0.65 0.65 0.63 0.62 0.61 0.58 0.55 0.52 0.49 0.46 0.41 0.37 0.34 0.31 0.30 0.29 0.29 0.28 0.27 0.26 0.27 0.28 0.29 0.30 0.30 0.31 0.31 0.31 0.32 0.32 0.32 0.32 0.33 0.33 0.34 0.34 0.33 0.31 0.29 0.29 0.30 0.29 0.29 0.31 0.32 0.32 0.31 0.32 0.36 0.37 0.40 0.44 0.45 0.45 0.45 0.43 0.44 0.45 0.51 0.54
0.35 0.37 0.43 0.49 0.53 0.57 0.61 0.66 0.70 0.74 0.78 0.78 0.79 0.81 0.81 0.82 0.82 0.82 0.83 0.82 0.80 0.77 0.73 0.71 0.68 0.64 0.61 0.61 0.60 0.57 0.55 0.53 0.49 0.45 0.42 0.40 0.38 0.34 0.32 0.30 0.29 0.28 0.27 0.27 0.27 0.27 0.27 0.27 0.28 0.29 0.30 0.30 0.31 0.31 0.31 0.32 0.32 0.32 0.33 0.33 0.33 0.34 0.35 0.33 0.31 0.30 0.30 0.29 0.28 0.30 0.31 0.31 0.33 0.35 0.37 0.39 0.40 0.43 0.46 0.47 0.45 0.43 0.42 0.45 0.54
0.33 0.34 0.38 0.45 0.50 0.54 0.57 0.59 0.64 0.68 0.72 0.75 0.75 0.76 0.78 0.78 0.76 0.75 0.73 0.71 0.70 0.72 0.73 0.71 0.67 0.64 0.60 0.57 0.55 0.54 0.53 0.50 0.44 0.39 0.38 0.38 0.37 0.35 0.32 0.31 0.30 0.28 0.27 0.26 0.26 0.26 0.26 0.26 0.26 0.28 0.29 0.29 0.30 0.31 0.31 0.31 0.31 0.32 0.32 0.33 0.33 0.34 0.34 0.35 0.36 0.35 0.34 0.32 0.30 0.29 0.30 0.32 0.32 0.33 0.39 0.41 0.43 0.39 0.41 0.42 0.44 0.46 0.44 0.42 0.47
0.33 0.34 0.36 0.41 0.47 0.52 0.56 0.58 0.60 0.63 0.69 0.75 0.78 0.77 0.79 0.78 0.78 0.81 0.76 0.74 0.69 0.66 0.67 0.69 0.67 0.63 0.61 0.59 0.56 0.52 0.49 0.44 0.39 0.37 0.37 0.36 0.36 0.35 0.33 0.32 0.31 0.29 0.27 0.26 0.26 0.26 0.26 0.26 0.26 0.26 0.27 0.28 0.29 0.29 0.29 0.29 0.30 0.30 0.30 0.31 0.32 0.33 0.34 0.35 0.35 0.36 0.36 0.34 0.33 0.31 0.33 0.36 0.33 0.36 0.40 0.43 0.42 0.40 0.40 0.39 0.44 0.44 0.45 0.43 0.47
0.31 0.34 0.36 0.39 0.45 0.51 0.54 0.57 0.59 0.63 0.65 0.67 0.70 0.69 0.68 0.71 0.78 0.82 0.82 0.77 0.74 0.69 0.64 0.64 0.66 0.66 0.65 0.61 0.57 0.51 0.43 0.39 0.38 0.36 0.35 0.35 0.35 0.35 0.34 0.33 0.32 0.30 0.28 0.27 0.26 0.27 0.27 0.27 0.27 0.27 0.27 0.28 0.29 0.29 0.29 0.29 0.29 0.29 0.29 0.29 0.31 0.32 0.33 0.34 0.35 0.36 0.36 0.37 0.36 0.35 0.36 0.37 0.37 0.39 0.40 0.43 0.43 0.45 0.46 0.44 0.45 0.47 0.51 0.54 0.52
0.30 0.33 0.35 0.38 0.41 0.48 0.54 0.57 0.60 0.61 0.64 0.65 0.65 0.66 0.68 0.68 0.66 0.67 0.70 0.71 0.70 0.71 0.69 0.70 0.68 0.66 0.64 0.62 0.57 0.46 0.42 0.40 0.37 0.35 0.35 0.34 0.34 0.34 0.32 0.31 0.29 0.28 0.27 0.27 0.27 0.28 0.28 0.28 0.28 0.28 0.28 0.28 0.29 0.30 0.30 0.30 0.29 0.29 0.28 0.29 0.30 0.31 0.32 0.35 0.36 0.37 0.37 0.38 0.38 0.38 0.38 0.39 0.39 0.39 0.40 0.42 0.43 0.46 0.49 0.51 0.51 0.47 0.45 0.43 0.42
0.30 0.32 0.34 0.37 0.41 0.46 0.52 0.55 0.57 0.60 0.62 0.64 0.66 0.68 0.70 0.70 0.69 0.68 0.65 0.63 0.61 0.62 0.64 0.68 0.69 0.67 0.64 0.61 0.52 0.45 0.42 0.40 0.37 0.35 0.33 0.33 0.32 0.32 0.31 0.30 0.29 0.28 0.27 0.27 0.28 0.28 0.29 0.29 0.29 0.29 0.29 0.30 0.31 0.31 0.31 0.31 0.30 0.29 0.29 0.28 0.29 0.30 0.30 0.34 0.36 0.37 0.38 0.39 0.39 0.40 0.40 0.40 0.40 0.40 0.40 0.40 0.41 0.43 0.43 0.41 0.39 0.43 0.41 0.37 0.38
0.30 0.32 0.34 0.37 0.42 0.47 0.53 0.57 0.57 0.59 0.62 0.63 0.66 0.69 0.72 0.73 0.70 0.67 0.61 0.59 0.59 0.61 0.63 0.64 0.65 0.63 0.59 0.54 0.49 0.44 0.43 0.42 0.39 0.34 0.31 0.31 0.31 0.31 0.31 0.30 0.29 0.27 0.26 0.27 0.28 0.29 0.30 0.30 0.31 0.31 0.30 0.30 0.31 0.31 0.31 0.31 0.28 0.28 0.28 0.28 0.27 0.28 0.29 0.33 0.35 0.36 0.38 0.38 0.39 0.40 0.40 0.40 0.41 0.41 0.41 0.41 0.42 0.43 0.40 0.35 0.38 0.43 0.38 0.38 0.36
0.31 0.32 0.35 0.39 0.43 0.48 0.52 0.56 0.59 0.60 0.62 0.64 0.68 0.70 0.72 0.73 0.70 0.68 0.63 0.61 0.60 0.61 0.63 0.64 0.62 0.60 0.57 0.51 0.49 0.45 0.42 0.39 0.36 0.33 0.32 0.32 0.32 0.32 0.32 0.31 0.29 0.27 0.27 0.27 0.29 0.30 0.30 0.31 0.31 0.31 0.31 0.31 0.31 0.31 0.31 0.31 0.30 0.29 0.28 0.27 0.26 0.26 0.29 0.32 0.32 0.33 0.35 0.36 0.36 0.38 0.38 0.40 0.41 0.41 0.41 0.41 0.42 0.43 0.43 0.41 0.42 0.41 0.37 0.38 0.39
0.34 0.36 0.38 0.41 0.44 0.48 0.52 0.55 0.60 0.61 0.62 0.64 0.67 0.71 0.72 0.69 0.65 0.66 0.65 0.64 0.64 0.65 0.65 0.61 0.60 0.58 0.55 0.52 0.48 0.45 0.41 0.39 0.37 0.35 0.34 0.33 0.33 0.34 0.34 0.32 0.29 0.28 0.28 0.28 0.28 0.29 0.31 0.31 0.32 0.32 0.32 0.32 0.32 0.32 0.32 0.32 0.31 0.30 0.30 0.28 0.27 0.26 0.31 0.33 0.33 0.35 0.34 0.35 0.36 0.38 0.38 0.39 0.40 0.40 0.41 0.42 0.43 0.45 0.45 0.44 0.43 0.42 0.39 0.39 0.40
0.36 0.38 0.40 0.43 0.46 0.48 0.52 0.55 0.57 0.60 0.61 0.63 0.67 0.67 0.64 0.63 0.63 0.64 0.67 0.71 0.71 0.68 0.65 0.62 0.58 0.54 0.50 0.47 0.44 0.43 0.41 0.38 0.36 0.35 0.34 0.33 0.33 0.34 0.33 0.30 0.29 0.29 0.29 0.29 0.29 0.29 0.30 0.31 0.32 0.33 0.32 0.32 0.32 0.33 0.33 0.33 0.33 0.33 0.32 0.31 0.31 0.32 0.34 0.33 0.34 0.36 0.35 0.36 0.36 0.36 0.37 0.38 0.38 0.38 0.39 0.39 0.40 0.42 0.45 0.47 0.47 0.45 0.42 0.40 0.40
0.39 0.40 0.42 0.45 0.48 0.50 0.52 0.55 0.59 0.61 0.64 0.64 0.61 0.61 0.62 0.64 0.68 0.69 0.71 0.69 0.65 0.61 0.58 0.54 0.48 0.45 0.44 0.44 0.42 0.40 0.39 0.37 0.35 0.35 0.34 0.33 0.32 0.32 0.31 0.30 0.31 0.30 0.30 0.30 0.30 0.31 0.31 0.32 0.32 0.33 0.33 0.33 0.34 0.34 0.34 0.34 0.34 0.34 0.33 0.34 0.35 0.36 0.36 0.36 0.37 0.37 0.37 0.37 0.38 0.38 0.39 0.39 0.39 0.40 0.41 0.41 0.41 0.42 0.43 0.47 0.50 0.50 0.49 0.48 0.45
0.41 0.43 0.45 0.47 0.50 0.52 0.54 0.56 0.58 0.61 0.63 0.64 0.60 0.60 0.64 0.66 0.66 0.63 0.58 0.57 0.53 0.47 0.45 0.44 0.43 0.41 0.40 0.40 0.39 0.38 0.37 0.36 0.35 0.34 0.33 0.32 0.32 0.31 0.32 0.32 0.32 0.32 0.31 0.29 0.30 0.31 0.33 0.34 0.34 0.35 0.34 0.34 0.34 0.35 0.35 0.35 0.35 0.36 0.37 0.37 0.38 0.39 0.40 0.39 0.40 0.39 0.40 0.41 0.41 0.41 0.41 0.42 0.42 0.43 0.44 0.45 0.47 0.48 0.47 0.48 0.49 0.51 0.51 0.52 0.55
0.44 0.45 0.47 0.49 0.53 0.55 0.56 0.57 0.59 0.60 0.62 0.67 0.68 0.68 0.69 0.67 0.62 0.54 0.48 0.45 0.42 0.41 0.42 0.42 0.41 0.38 0.36 0.36 0.37 0.35 0.34 0.33 0.32 0.33 0.32 0.31 0.31 0.31 0.31 0.32 0.32 0.32 0.33 0.32 0.33 0.34 0.34 0.34 0.35 0.35 0.35 0.35 0.35 0.36 0.36 0.36 0.37 0.38 0.39 0.41 0.42 0.43 0.43 0.43 0.44 0.45 0.45 0.45 0.45 0.46 0.46 0.48 0.48 0.48 0.49 0.51 0.53 0.54 0.54 0.54 0.53 0.54 0.54 0.55 0.56
0.46 0.47 0.49 0.52 0.55 0.57 0.58 0.58 0.60 0.59 0.61 0.61 0.64 0.67 0.62 0.57 0.52 0.50 0.47 0.44 0.43 0.41 0.40 0.38 0.36 0.35 0.33 0.31 0.31 0.32 0.32 0.32 0.31 0.31 0.30 0.30 0.30 0.30 0.31 0.33 0.33 0.34 0.34 0.35 0.36 0.35 0.36 0.36 0.35 0.36 0.36 0.36 0.37 0.37 0.38 0.39 0.40 0.41 0.43 0.44 0.46 0.46 0.47 0.48 0.49 0.51 0.50 0.50 0.51 0.52 0.52 0.54 0.56 0.57 0.59 0.60 0.60 0.59 0.57 0.57 0.57 0.58 0.58 0.58 0.55
0.48 0.49 0.52 0.55 0.56 0.57 0.57 0.58 0.60 0.64 0.65 0.63 0.59 0.56 0.52 0.50 0.49 0.49 0.47 0.45 0.42 0.40 0.37 0.36 0.34 0.32 0.31 0.31 0.31 0.30 0.29 0.28 0.28 0.28 0.28 0.28 0.29 0.30 0.32 0.34 0.34 0.35 0.36 0.36 0.36 0.37 0.37 0.37 0.37 0.37 0.37 0.38 0.38 0.38 0.39 0.41 0.43 0.45 0.46 0.48 0.50 0.51 0.53 0.54 0.54 0.54 0.53 0.55 0.55 0.56 0.58 0.60 0.61 0.64 0.66 0.66 0.63 0.61 0.61 0.58 0.57 0.54 0.53 0.51 0.49
0.51 0.52 0.54 0.56 0.56 0.57 0.56 0.53 0.55 0.61 0.62 0.54 0.53 0.52 0.50 0.50 0.49 0.47 0.44 0.41 0.38 0.36 0.34 0.32 0.32 0.33 0.32 0.31 0.30 0.28 0.27 0.26 0.26 0.26 0.27 0.27 0.29 0.31 0.33 0.34 0.35 0.36 0.36 0.36 0.37 0.37 0.37 0.38 0.38 0.38 0.38 0.39 0.41 0.42 0.43 0.45 0.46 0.48 0.50 0.53 0.55 0.56 0.58 0.58 0.58 0.57 0.58 0.58 0.60 0.61 0.63 0.64 0.65 0.64 0.64 0.64 0.63 0.64 0.64 0.62 0.59 0.57 0.55 0.51 0.47
0.53 0.54 0.55 0.56 0.56 0.56 0.55 0.55 0.53 0.53 0.53 0.52 0.51 0.52 0.51 0.49 0.48 0.43 0.41 0.39 0.35 0.34 0.33 0.34 0.33 0.33 0.31 0.30 0.29 0.27 0.25 0.24 0.25 0.26 0.26 0.28 0.30 0.32 0.34 0.35 0.36 0.36 0.35 0.36 0.37 0.37 0.37 0.38 0.39 0.40 0.41 0.41 0.43 0.44 0.46 0.48 0.49 0.50 0.53 0.56 0.58 0.61 0.61 0.62 0.62 0.61 0.61 0.62 0.62 0.63 0.64 0.65 0.63 0.63 0.64 0.63 0.62 0.64 0.66 0.63 0.61 0.58 0.57 0.53 0.48
0.57 0.56 0.57 0.58 0.56 0.57 0.54 0.52 0.50 0.50 0.50 0.50 0.50 0.50 0.49 0.47 0.43 0.41 0.39 0.37 0.35 0.34 0.34 0.34 0.34 0.33 0.32 0.30 0.28 0.26 0.25 0.24 0.25 0.27 0.28 0.30 0.33 0.34 0.34 0.35 0.36 0.36 0.37 0.37 0.37 0.38 0.38 0.38 0.38 0.39 0.41 0.42 0.43 0.45 0.47 0.49 0.50 0.53 0.55 0.58 0.60 0.61 0.62 0.62 0.60 0.61 0.63 0.62 0.62 0.62 0.63 0.63 0.63 0.64 0.63 0.62 0.62 0.63 0.66 0.64 0.64 0.61 0.59 0.56 0.50
0.57 0.56 0.57 0.55 0.54 0.51 0.48 0.49 0.52 0.52 0.52 0.51 0.49 0.48 0.49 0.45 0.41 0.38 0.37 0.38 0.38 0.38 0.36 0.34 0.34 0.34 0.32 0.31 0.31 0.28 0.26 0.26 0.27 0.28 0.30 0.33 0.35 0.35 0.36 0.37 0.37 0.37 0.37 0.38 0.38 0.36 0.36 0.37 0.39 0.40 0.42 0.44 0.44 0.46 0.48 0.50 0.51 0.53 0.56 0.58 0.60 0.61 0.61 0.62 0.62 0.63 0.64 0.63 0.64 0.64 0.64 0.63 0.62 0.63 0.62 0.62 0.63 0.63 0.64 0.64 0.63 0.63 0.58 0.55 0.51
0.58 0.57 0.58 0.55 0.48 0.46 0.45 0.46 0.49 0.48 0.49 0.48 0.47 0.45 0.43 0.43 0.42 0.40 0.39 0.39 0.39 0.38 0.37 0.37 0.36 0.35 0.33 0.31 0.33 0.32 0.30 0.28 0.28 0.29 0.32 0.34 0.35 0.36 0.36 0.37 0.37 0.37 0.38 0.38 0.37 0.37 0.37 0.38 0.40 0.43 0.45 0.47 0.47 0.49 0.51 0.51 0.53 0.54 0.57 0.59 0.60 0.61 0.62 0.62 0.63 0.64 0.64 0.63 0.62 0.62 0.62 0.61 0.62 0.62 0.61 0.61 0.61 0.62 0.63 0.64 0.64 0.63 0.60 0.57 0.53
0.58 0.57 0.53 0.48 0.46 0.45 0.43 0.44 0.45 0.45 0.45 0.45 0.44 0.42 0.39 0.37 0.37 0.40 0.40 0.39 0.39 0.38 0.36 0.36 0.35 0.35 0.35 0.35 0.32 0.30 0.29 0.28 0.29 0.31 0.33 0.34 0.35 0.36 0.36 0.37 0.37 0.38 0.39 0.39 0.37 0.38 0.40 0.40 0.43 0.46 0.48 0.49 0.50 0.52 0.53 0.53 0.55 0.56 0.57 0.58 0.59 0.61 0.61 0.61 0.63 0.63 0.62 0.62 0.61 0.61 0.60 0.59 0.58 0.57 0.57 0.57 0.58 0.59 0.60 0.60 0.61 0.61 0.61 0.60 0.57
0.60 0.53 0.48 0.45 0.44 0.43 0.44 0.45 0.45 0.45 0.45 0.44 0.43 0.40 0.38 0.36 0.35 0.35 0.37 0.39 0.37 0.36 0.35 0.35 0.35 0.35 0.35 0.34 0.33 0.32 0.31 0.31 0.32 0.33 0.33 0.34 0.35 0.36 0.37 0.37 0.38 0.39 0.40 0.39 0.39 0.39 0.42 0.43 0.45 0.48 0.50 0.51 0.52 0.53 0.54 0.55 0.56 0.57 0.58 0.58 0.59 0.61 0.61 0.62 0.64 0.63 0.63 0.64 0.64 0.61 0.60 0.58 0.57 0.55 0.54 0.55 0.54 0.55 0.58 0.59 0.60 0.61 0.61 0.60 0.58
0.49 0.46 0.46 0.48 0.48 0.49 0.49 0.49 0.48 0.46 0.46 0.44 0.43 0.40 0.37 0.36 0.35 0.34 0.33 0.32 0.32 0.34 0.35 0.34 0.34 0.35 0.34 0.33 0.33 0.33 0.33 0.32 0.33 0.33 0.34 0.34 0.35 0.37 0.37 0.38 0.39 0.40 0.40 0.40 0.41 0.41 0.43 0.45 0.47 0.49 0.51 0.53 0.53 0.54 0.55 0.55 0.56 0.57 0.58 0.59 0.60 0.61 0.62 0.63 0.63 0.63 0.64 0.63 0.61 0.61 0.59 0.58 0.57 0.54 0.53 0.53 0.54 0.54 0.55 0.57 0.58 0.58 0.60 0.61 0.59
0.56 0.55 0.53 0.52 0.51 0.49 0.48 0.47 0.46 0.46 0.44 0.42 0.39 0.37 0.36 0.36 0.35 0.33 0.31 0.29 0.29 0.29 0.29 0.32 0.34 0.35 0.34 0.32 0.33 0.34 0.33 0.33 0.34 0.34 0.34 0.34 0.35 0.37 0.38 0.37 0.37 0.39 0.41 0.43 0.43 0.44 0.45 0.46 0.48 0.50 0.52 0.52 0.53 0.54 0.54 0.55 0.56 0.56 0.57 0.59 0.60 0.61 0.61 0.62 0.63 0.64 0.63 0.63 0.61 0.60 0.59 0.58 0.57 0.56 0.54 0.53 0.53 0.52 0.53 0.55 0.57 0.59 0.61 0.62 0.60
0.52 0.51 0.50 0.49 0.48 0.47 0.47 0.47 0.47 0.45 0.42 0.39 0.38 0.37 0.36 0.34 0.32 0.31 0.30 0.30 0.30 0.30 0.30 0.31 0.33 0.34 0.33 0.33 0.34 0.34 0.34 0.35 0.35 0.35 0.34 0.34 0.35 0.37 0.35 0.35 0.37 0.39 0.41 0.43 0.44 0.45 0.47 0.48 0.49 0.50 0.52 0.53 0.53 0.53 0.55 0.55 0.56 0.57 0.58 0.59 0.60 0.61 0.61 0.62 0.63 0.63 0.63 0.61 0.60 0.60 0.60 0.59 0.58 0.57 0.57 0.55 0.54 0.54 0.54 0.55 0.57 0.59 0.62 0.63 0.62
0.49 0.48 0.48 0.48 0.47 0.47 0.48 0.47 0.46 0.42 0.40 0.39 0.38 0.36 0.34 0.32 0.31 0.30 0.31 0.30 0.29 0.30 0.31 0.32 0.32 0.32 0.32 0.34 0.35 0.35 0.35 0.35 0.35 0.36 0.35 0.34 0.35 0.37 0.37 0.38 0.39 0.41 0.42 0.43 0.45 0.46 0.47 0.48 0.50 0.51 0.52 0.52 0.53 0.54 0.55 0.56 0.57 0.58 0.59 0.60 0.61 0.61 0.62 0.63 0.64 0.65 0.63 0.60 0.59 0.60 0.60 0.59 0.59 0.59 0.57 0.55 0.54 0.55 0.55 0.57 0.58 0.61 0.63 0.64 0.62
0.49 0.48 0.48 0.48 0.48 0.48 0.47 0.45 0.43 0.41 0.39 0.37 0.35 0.32 0.31 0.31 0.31 0.31 0.29 0.29 0.29 0.29 0.30 0.31 0.32 0.31 0.30 0.31 0.35 0.35 0.35 0.35 0.35 0.35 0.34 0.33 0.34 0.35 0.38 0.41 0.42 0.42 0.43 0.45 0.46 0.47 0.47 0.49 0.50 0.51 0.52 0.53 0.53 0.54 0.55 0.56 0.58 0.59 0.59 0.60 0.61 0.62 0.64 0.64 0.65 0.65 0.63 0.60 0.59 0.61 0.61 0.61 0.61 0.60 0.59 0.57 0.56 0.56 0.57 0.59 0.60 0.61 0.63 0.64 0.63
0.49 0.49 0.48 0.48 0.48 0.47 0.46 0.44 0.42 0.38 0.36 0.33 0.32 0.31 0.31 0.30 0.29 0.29 0.29 0.29 0.28 0.29 0.29 0.30 0.30 0.30 0.31 0.32 0.33 0.35 0.34 0.33 0.33 0.33 0.34 0.33 0.34 0.36 0.39 0.42 0.43 0.44 0.45 0.46 0.47 0.48 0.48 0.49 0.50 0.51 0.52 0.53 0.54 0.54 0.55 0.56 0.58 0.58 0.59 0.60 0.61 0.62 0.63 0.64 0.64 0.63 0.61 0.58 0.59 0.62 0.63 0.62 0.62 0.61 0.60 0.59 0.59 0.60 0.60 0.61 0.62 0.63 0.63 0.63 0.61
0.48 0.48 0.48 0.48 0.48 0.47 0.46 0.43 0.38 0.35 0.33 0.32 0.31 0.31 0.29 0.29 0.29 0.28 0.28 0.27 0.28 0.28 0.29 0.29 0.29 0.30 0.31 0.32 0.32 0.32 0.32 0.33 0.34 0.35 0.35 0.34 0.32 0.35 0.39 0.41 0.43 0.44 0.45 0.46 0.47 0.48 0.49 0.49 0.50 0.51 0.52 0.53 0.54 0.55 0.55 0.56 0.58 0.59 0.60 0.60 0.61 0.61 0.62 0.63 0.62 0.62 0.59 0.58 0.60 0.63 0.63 0.62 0.62 0.63 0.62 0.62 0.62 0.63 0.62 0.63 0.63 0.64 0.64 0.62 0.62
0.49 0.49 0.49 0.49 0.48 0.46 0.43 0.38 0.35 0.33 0.33 0.33 0.32 0.31 0.30 0.29 0.29 0.28 0.28 0.27 0.27 0.27 0.28 0.28 0.29 0.31 0.32 0.32 0.32 0.32 0.32 0.33 0.35 0.36 0.36 0.35 0.33 0.34 0.37 0.41 0.44 0.45 0.46 0.47 0.48 0.48 0.49 0.49 0.50 0.51 0.51 0.52 0.54 0.55 0.56 0.57 0.58 0.59 0.59 0.60 0.60 0.61 0.62 0.59 0.58 0.58 0.58 0.58 0.62 0.62 0.63 0.62 0.62 0.62 0.61 0.63 0.65 0.65 0.65 0.65 0.65 0.65 0.64 0.64 0.63
0.50 0.50 0.49 0.49 0.47 0.43 0.40 0.36 0.35 0.34 0.33 0.32 0.31 0.29 0.29 0.30 0.30 0.29 0.28 0.27 0.26 0.27 0.27 0.28 0.30 0.31 0.31 0.32 0.32 0.32 0.31 0.34 0.36 0.37 0.38 0.38 0.36 0.34 0.37 0.41 0.45 0.46 0.47 0.47 0.48 0.48 0.49 0.50 0.50 0.50 0.51 0.52 0.54 0.55 0.56 0.56 0.58 0.58 0.59 0.59 0.60 0.61 0.56 0.57 0.57 0.57 0.57 0.57 0.61 0.62 0.62 0.62 0.62 0.62 0.63 0.63 0.64 0.65 0.65 0.65 0.65 0.64 0.63 0.62 0.62
0.51 0.51 0.50 0.47 0.44 0.41 0.39 0.36 0.34 0.32 0.32 0.31 0.30 0.31 0.31 0.31 0.30 0.29 0.28 0.27 0.27 0.27 0.27 0.28 0.30 0.31 0.31 0.32 0.32 0.31 0.31 0.33 0.35 0.37 0.38 0.39 0.38 0.35 0.36 0.39 0.44 0.47 0.48 0.49 0.50 0.50 0.50 0.50 0.50 0.51 0.52 0.52 0.54 0.55 0.56 0.56 0.58 0.58 0.59 0.59 0.60 0.60 0.57 0.58 0.60 0.59 0.55 0.58 0.61 0.61 0.62 0.62 0.62 0.61 0.61 0.61 0.62 0.62 0.62 0.62 0.62 0.61 0.61 0.61 0.61
0.52 0.50 0.47 0.44 0.42 0.39 0.37 0.35 0.33 0.33 0.32 0.32 0.31 0.32 0.32 0.31 0.31 0.30 0.29 0.28 0.28 0.28 0.29 0.30 0.30 0.30 0.30 0.31 0.31 0.31 0.31 0.32 0.35 0.36 0.38 0.40 0.39 0.36 0.36 0.39 0.43 0.46 0.48 0.49 0.50 0.51 0.51 0.51 0.51 0.52 0.53 0.54 0.55 0.56 0.57 0.58 0.59 0.59 0.59 0.59 0.60 0.60 0.57 0.59 0.60 0.59 0.55 0.57 0.61 0.62 0.62 0.62 0.61 0.61 0.61 0.61 0.61 0.60 0.59 0.59 0.59 0.58 0.57 0.58 0.59
0.51 0.49 0.45 0.41 0.37 0.35 0.34 0.34 0.34 0.33 0.32 0.32 0.32 0.32 0.32 0.32 0.31 0.30 0.30 0.29 0.30 0.30 0.31 0.31 0.31 0.31 0.30 0.31 0.31 0.30 0.31 0.32 0.34 0.36 0.38 0.40 0.40 0.38 0.36 0.37 0.41 0.45 0.47 0.48 0.50 0.50 0.51 0.51 0.52 0.52 0.52 0.53 0.55 0.56 0.57 0.58 0.60 0.60 0.61 0.61 0.60 0.58 0.57 0.59 0.60 0.60 0.56 0.58 0.60 0.61 0.62 0.62 0.61 0.61 0.61 0.62 0.62 0.62 0.61 0.61 0.61 0.61 0.60 0.60 0.60
0.49 0.46 0.43 0.40 0.37 0.35 0.33 0.33 0.33 0.33 0.33 0.33 0.32 0.32 0.32 0.32 0.31 0.30 0.30 0.30 0.30 0.31 0.31 0.31 0.31 0.31 0.31 0.31 0.31 0.31 0.31 0.32 0.34 0.36 0.38 0.40 0.40 0.40 0.38 0.37 0.39 0.43 0.46 0.48 0.49 0.50 0.51 0.51 0.51 0.52 0.52 0.53 0.54 0.56 0.57 0.58 0.59 0.60 0.61 0.62 0.61 0.59 0.59 0.63 0.63 0.60 0.56 0.57 0.59 0.61 0.62 0.62 0.63 0.64 0.63 0.61 0.59 0.59 0.60 0.62 0.62 0.62 0.62 0.62 0.63
0.45 0.42 0.40 0.38 0.35 0.34 0.34 0.34 0.34 0.34 0.35 0.34 0.33 0.32 0.31 0.30 0.31 0.31 0.31 0.30 0.31 0.31 0.30 0.30 0.29 0.29 0.30 0.30 0.31 0.31 0.31 0.32 0.33 0.35 0.38 0.40 0.41 0.41 0.39 0.37 0.37 0.41 0.45 0.47 0.48 0.49 0.50 0.51 0.52 0.52 0.52 0.53 0.54 0.55 0.56 0.57 0.58 0.60 0.61 0.62 0.61 0.58 0.61 0.64 0.64 0.61 0.57 0.57 0.59 0.60 0.62 0.65 0.66 0.66 0.67 0.67 0.63 0.60 0.58 0.58 0.59 0.60 0.61 0.61 0.62
0.45 0.42 0.39 0.37 0.36 0.35 0.35 0.35 0.35 0.35 0.34 0.32 0.31 0.31 0.30 0.30 0.30 0.30 0.30 0.30 0.30 0.29 0.29 0.29 0.28 0.29 0.29 0.29 0.31 0.32 0.32 0.32 0.32 0.34 0.38 0.39 0.40 0.41 0.40 0.38 0.37 0.38 0.42 0.45 0.46 0.48 0.49 0.50 0.51 0.52 0.53 0.53 0.54 0.54 0.55 0.56 0.58 0.59 0.60 0.61 0.62 0.61 0.60 0.62 0.64 0.64 0.61 0.58 0.58 0.60 0.63 0.66 0.66 0.67 0.67 0.66 0.64 0.64 0.63 0.63 0.63 0.63 0.63 0.63 0.63
0.44 0.41 0.38 0.37 0.35 0.34 0.33 0.33 0.32 0.31 0.31 0.31 0.31 0.31 0.31 0.31 0.30 0.30 0.30 0.29 0.27 0.27 0.27 0.27 0.27 0.28 0.28 0.29 0.30 0.31 0.32 0.31 0.31 0.33 0.36 0.39 0.40 0.40 0.40 0.38 0.37 0.38 0.40 0.43 0.45 0.47 0.48 0.49 0.51 0.52 0.52 0.53 0.54 0.54 0.55 0.56 0.57 0.58 0.59 0.60 0.61 0.62 0.61 0.61 0.63 0.64 0.63 0.60 0.59 0.61 0.63 0.65 0.65 0.65 0.66 0.66 0.66 0.65 0.65 0.65 0.65 0.64 0.64 0.64 0.64
0.41 0.40 0.38 0.36 0.35 0.34 0.34 0.33 0.32 0.32 0.32 0.32 0.31 0.30 0.30 0.29 0.29 0.27 0.26 0.25 0.24 0.23 0.23 0.24 0.25 0.26 0.27 0.28 0.29 0.30 0.30 0.29 0.31 0.33 0.35 0.38 0.39 0.40 0.40 0.38 0.37 0.37 0.38 0.41 0.44 0.46 0.47 0.49 0.50 0.51 0.52 0.53 0.53 0.54 0.55 0.55 0.56 0.57 0.59 0.60 0.61 0.62 0.62 0.62 0.62 0.63 0.63 0.62 0.59 0.59 0.60 0.61 0.63 0.64 0.64 0.65 0.65 0.65 0.64 0.64 0.64 0.63 0.63 0.62 0.61
0.38 0.37 0.36 0.35 0.35 0.34 0.34 0.33 0.32 0.31 0.31 0.31 0.30 0.29 0.27 0.25 0.23 0.22 0.22 0.22 0.22 0.22 0.23 0.23 0.23 0.24 0.25 0.27 0.28 0.29 0.29 0.29 0.31 0.34 0.35 0.37 0.38 0.39 0.39 0.38 0.36 0.35 0.37 0.39 0.43 0.45 0.47 0.48 0.49 0.50 0.51 0.52 0.53 0.54 0.55 0.55 0.56 0.57 0.58 0.60 0.60 0.61 0.61 0.62 0.62 0.62 0.63 0.63 0.63 0.62 0.60 0.60 0.60 0.60 0.60 0.62 0.63 0.62 0.61 0.62 0.61 0.61 0.60 0.60 0.60
Wind_Speed
24 24 24 23 22 22 23 23 23 22 22 22 21 21 20 20 20 20 20 20 19 19 18 17 17 17 17 17 18 18 18 18 18 18 18 19 19 19 19 19 19 20 20 21 21 21 22 22 22 23 23 23 24 24 25 26 26 27 27 28 29 29 30 30 31 32 31 31 32 32 32 32 32 31 31 31 31 31 32 32 33 33 33 34 34
24 24 25 25 25 24 23 24 24 24 24 24 24 23 22 22 21 21 21 21 21 20 20 20 19 18 18 18 19 19 19 20 20 20 20 20 20 20 20 20 21 21 21 22 22 23 23 23 24 24 24 25 25 26 26 27 27 28 28 29 30 30 31 32 32 33 33 32 32 33 33 33 33 32 32 32 31 31 32 32 33 33 33 33 34
24 25 26 26 26 25 24 25 25 26 26 26 26 25 25 24 23 22 22 22 22 21 21 21 21 20 20 20 20 20 20 21 21 21 21 21 21 21 22 22 22 22 23 23 24 24 24 25 25 25 26 26 27 27 28 28 28 29 30 30 31 32 32 33 33 34 34 33 33 33 34 34 34 34 33 33 32 32 32 32 33 33 34 34 33
25 25 26 27 27 28 27 27 27 27 28 27 27 27 27 26 25 24 23 23 23 22 22 22 21 21 21 22 21 21 22 22 22 22 22 22 22 22 23 23 23 23 24 24 25 25 26 26 26 27 27 27 27 28 28 29 29 30 31 31 32 33 33 34 34 35 35 35 34 34 34 35 35 35 34 34 34 33 33 33 33 33 34 34 34
26 26 27 28 28 29 30 29 28 29 29 29 29 29 28 27 27 26 25 24 24 23 23 23 23 23 23 23 23 23 23 23 23 23 23 23 23 23 24 24 24 25 25 25 26 26 26 26 27 27 27 28 28 28 28 29 30 30 31 32 32 33 34 34 35 36 36 36 36 35 35 36 36 36 36 36 35 35 34 34 34 34 34 34 34
27 28 29 29 30 31 31 31 30 30 31 31 31 31 30 29 29 28 27 26 25 24 24 24 24 24 24 24 24 24 24 24 24 24 24 24 24 24 25 25 26 26 26 26 26 26 26 27 27 27 27 28 28 29 29 30 30 31 32 32 33 33 34 35 36 36 37 38 37 37 37 37 37 37 36 36 36 36 35 35 35 34 34 34 34
28 29 30 31 32 32 33 33 33 32 32 32 33 33 32 32 31 31 30 29 28 27 26 26 25 25 25 25 25 25 25 25 25 24 24 25 25 25 26 26 27 27 27 27 27 27 27 27 27 28 28 29 29 30 30 31 32 32 33 33 34 35 35 36 37 38 39 39 39 39 38 38 37 37 37 37 37 37 36 36 36 35 34 34 34
28 30 31 32 33 34 34 34 34 34 33 33 33 33 33 33 33 32 32 31 30 30 29 28 27 26 26 26 25 25 25 25 25 26 26 26 26 27 27 28 28 28 28 28 28 28 28 28 29 29 29 30 31 31 32 32 33 34 34 35 36 36 37 37 38 39 39 40 40 40 40 39 39 38 38 38 38 38 37 37 37 36 35 35 35
30 31 32 33 34 34 35 35 35 35 35 35 35 35 35 35 34 33 33 32 31 31 31 30 29 28 27 27 26 26 26 26 26 26 27 27 27 28 28 28 29 29 29 29 29 29 30 30 30 31 31 32 32 33 33 34 34 35 36 36 37 38 38 39 39 39 40 41 41 41 41 41 40 39 39 38 38 38 38 38 39 38 37 37 36
33 33 34 35 35 35 35 36 36 36 36 37 37 37 36 37 37 36 34 33 32 31 31 31 30 29 28 28 27 27 26 26 26 27 27 28 28 28 29 29 29 29 29 30 30 30 31 31 32 32 33 34 34 34 35 35 36 37 37 37 38 39 39 40 40 41 41 42 42 42 42 42 41 41 40 40 40 40 40 40 40 40 39 39 38
35 35 36 36 36 36 36 36 37 37 37 38 38 38 37 37 37 36 35 33 32 32 31 31 31 30 29 28 28 27 27 27 27 27 28 29 29 29 29 29 29 30 30 30 31 31 32 32 33 33 34 35 35 36 36 37 37 38 39 39 40 40 41 41 42 42 43 43 43 43 43 44 43 42 42 41 41 41 40 41 41 41 41 40 39
36 37 37 37 37 37 36 37 37 38 38 38 39 39 38 37 36 35 34 33 32 31 31 31 31 30 29 29 29 29 29 28 28 28 28 29 29 29 29 29 30 30 31 31 32 32 33 33 34 34 35 36 37 37 38 38 39 40 40 41 42 42 43 43 43 43 44 44 45 45 45 45 44 43 43 42 42 42 42 42 42 41 41 41 41
37 37 38 38 38 38 37 37 37 38 38 38 38 39 39 38 38 37 37 35 34 31 30 30 31 30 30 30 30 30 30 30 29 29 29 29 30 30 30 30 31 31 32 32 33 33 34 35 35 36 37 38 38 38 39 40 40 41 42 43 43 44 44 45 45 45 45 46 46 46 46 46 46 45 44 44 43 43 43 42 42 42 42 42 42
38 38 38 38 39 39 38 38 38 37 37 37 37 37 37 36 36 35 36 36 35 33 32 31 31 31 30 30 31 31 31 31 30 30 30 30 31 31 31 32 32 33 33 33 34 35 35 36 37 37 38 39 39 40 41 41 42 43 43 44 44 45 45 46 47 47 47 47 48 48 47 47 47 47 45 45 45 45 45 44 44 44 44 43 43
38 39 38 38 38 39 38 38 38 37 37 36 36 36 35 34 33 33 33 33 33 34 33 33 32 32 32 31 31 32 32 32 32 32 32 32 32 32 32 33 34 34 34 35 35 36 36 37 38 39 39 40 41 41 42 43 43 44 45 45 46 46 47 47 48 48 49 49 50 50 49 48 48 48 47 46 46 46 46 46 45 45 45 44 44
38 39 39 39 38 38 38 37 37 37 37 36 36 36 36 35 34 34 34 33 33 33 33 34 34 34 33 32 31 31 32 33 33 33 33 33 33 33 33 34 35 35 35 36 36 36 37 38 39 40 41 41 42 43 44 44 45 46 47 47 48 48 48 49 49 50 51 51 51 51 51 50 50 49 49 48 48 47 46 46 46 45 45 45 44
38 38 39 39 38 38 38 37 37 37 37 37 37 36 36 35 34 34 35 34 34 34 33 34 34 34 33 32 31 31 32 33 33 33 34 34 34 34 34 34 35 36 36 37 37 37 38 39 40 41 42 43 43 44 45 46 47 48 49 49 49 49 49 49 50 51 52 52 53 53 53 52 52 52 51 50 50 49 48 48 47 46 46 46 45
38 38 38 38 37 38 37 37 36 36 36 35 35 35 35 34 33 33 33 33 34 34 34 34 34 33 32 31 30 30 31 31 32 33 34 34 35 35 35 36 36 37 37 37 38 38 39 40 42 43 43 44 45 46 46 47 49 49 50 50 51 51 50 50 50 51 51 53 53 54 54 54 53 53 52 51 51 50 50 51 49 47 47 47 46
39 38 38 37 36 36 36 35 35 35 35 34 34 34 33 33 32 32 32 32 33 33 33 33 33 33 32 31 30 29 29 30 31 32 33 34 35 36 36 37 37 38 38 38 39 39 40 42 43 44 45 46 47 48 48 49 49 50 50 51 51 52 51 50 50 50 51 51 52 52 53 53 53 53 52 51 51 51 51 51 50 49 49 49 47
39 38 37 36 35 34 34 34 34 34 34 33 33 33 32 31 31 31 30 31 31 30 30 30 30 30 30 29 29 29 29 30 30 31 32 34 35 35 36 37 38 39 39 40 40 41 42 43 44 45 47 48 48 49 49 50 50 51 50 51 52 52 50 50 50 50 50 51 51 51 51 51 52 52 52 51 50 50 50 51 51 51 50 50 49
39 38 37 36 35 34 34 33 33 33 33 32 31 31 30 30 30 29 29 28 27 27 27 27 27 27 26 27 27 28 28 29 31 32 33 34 34 35 36 37 38 39 40 41 42 43 44 45 46 47 48 49 49 50 51 51 51 51 51 52 52 52 50 50 50 50 50 50 50 50 50 51 51 51 51 50 50 49 50 50 50 50 51 50 49
38 37 37 36 34 34 33 33 33 32 32 32 31 30 29 29 29 28 27 26 26 26 26 25 25 26 25 25 26 27 29 30 31 32 33 35 35 36 36 37 38 39 41 42 43 45 46 46 47 48 49 49 50 51 51 52 51 52 52 52 52 51 50 49 49 48 48 49 48 48 48 49 49 49 49 49 49 49 49 50 50 50 50 51 50
37 36 36 35 34 33 32 32 32 31 30 30 30 29 28 28 28 27 27 27 27 27 26 26 26 27 27 27 27 27 28 30 31 32 34 35 36 37 38 39 40 41 42 44 45 45 46 46 47 48 49 50 51 51 51 52 52 52 51 51 50 49 49 48 47 47 47 47 48 48 47 47 47 47 48 48 48 48 48 49 50 50 51 50 50
36 35 35 34 33 32 31 31 31 30 28 27 27 27 26 26 26 26 26 26 26 26 26 26 26 27 28 29 28 28 29 30 31 32 33 34 36 37 38 39 40 41 42 43 44 45 46 47 48 49 50 51 51 51 52 52 51 50 49 48 47 47 46 45 45 45 45 45 45 45 45 45 45 45 45 46 46 47 47 48 49 50 50 49 49
35 34 33 32 31 30 29 29 28 27 25 25 26 27 25 24 24 24 23 23 24 25 25 26 27 27 28 29 29 29 29 30 30 31 32 33 34 35 37 38 39 41 42 42 44 45 46 48 49 50 50 51 51 51 51 50 49 47 46 45 44 43 43 43 43 42 42 41 41 41 41 40 41 42 42 43 44 45 46 46 47 48 48 48 48
33 32 31 30 29 28 27 26 25 25 25 25 26 25 24 23 22 21 21 21 21 22 22 23 24 25 26 28 28 29 29 29 30 30 31 33 34 35 37 38 40 41 42 43 44 45 47 48 48 49 49 50 50 50 48 46 45 43 42 41 41 40 39 39 38 38 38 38 38 38 38 37 38 38 39 40 41 42 43 44 45 46 47 47 47
30 29 28 27 27 27 26 24 23 24 25 25 24 22 21 20 20 19 19 19 19 19 19 20 21 22 24 25 26 27 28 28 29 30 31 33 34 36 37 39 40 41 42 43 44 45 46 47 48 48 49 49 48 46 44 42 40 39 38 37 36 35 35 35 35 35 35 35 36 36 36 36 36 36 37 37 38 38 39 40 42 43 44 45 45
28 26 26 26 25 25 23 23 23 24 24 23 22 21 19 18 18 18 18 18 17 17 18 19 19 21 22 23 24 25 26 27 28 30 31 33 34 36 37 38 39 40 41 42 43 44 45 46 46 46 45 44 42 40 38 37 36 35 34 33 32 32 32 33 34 34 34 34 34 34 34 35 35 35 35 36 36 36 36 37 39 41 42 42 43
25 25 24 24 23 22 22 22 22 23 22 21 20 19 18 17 16 16 16 17 16 16 17 18 19 20 21 21 22 24 25 26 28 29 31 33 34 36 37 38 38 39 40 41 42 43 43 43 42 41 40 38 37 36 34 33 32 31 30 30 30 30 31 31 32 32 32 32 32 32 32 33 33 34 34 35 35 35 35 36 37 38 39 41 41
24 24 23 23 23 22 22 22 22 22 21 20 18 17 16 15 14 14 14 14 14 15 16 17 19 19 20 21 21 23 24 26 28 30 31 33 34 35 36 37 37 38 39 40 40 40 40 39 37 36 35 34 33 32 30 29 28 28 28 28 29 29 30 30 30 31 30 30 30 31 31 31 32 32 33 33 33 33 34 35 35 36 37 38 39
23 23 23 24 24 23 22 22 22 21 20 19 17 15 13 13 12 11 11 11 12 13 14 16 17 18 19 20 21 22 23 25 27 29 30 31 32 33 34 35 36 37 38 38 38 37 36 34 32 32 31 31 30 29 27 26 26 26 27 27 28 28 28 28 28 28 27 28 28 28 29 29 30 30 30 31 31 31 32 33 34 34 34 36 37
23 25 25 25 24 22 22 22 21 20 19 17 15 13 12 12 11 10 10 10 11 12 13 13 14 15 16 18 19 20 22 25 26 28 29 30 31 32 33 34 35 36 36 36 34 33 31 30 29 29 28 28 27 26 25 24 25 25 26 26 27 27 26 26 26 25 25 25 25 26 26 26 27 27 28 28 28 29 29 30 31 32 32 33 34
25 26 26 24 23 22 22 21 20 19 17 15 14 13 12 11 10 10 9 9 10 10 10 11 12 13 14 15 17 19 22 24 26 27 28 29 30 31 33 33 34 34 33 31 30 29 28 28 27 27 26 26 25 24 23 24 24 25 25 25 25 25 25 24 24 23 23 23 23 24 24 25 25 26 27 27 27 27 28 28 29 30 30 30 31
26 26 25 24 23 23 22 20 19 17 15 13 12 12 11 10 9 9 9 8 8 9 9 10 12 13 14 15 17 19 22 24 25 26 27 29 30 31 31 31 31 31 29 28 27 27 27 26 26 25 24 24 23 22 23 23 24 25 25 24 24 23 23 22 22 22 22 22 22 22 23 23 23 23 24 24 25 26 27 28 28 29 28 28 29
26 25 24 23 22 21 20 18 16 14 13 12 11 10 9 8 8 7 7 7 7 8 9 10 11 13 14 16 17 20 22 24 25 26 27 28 29 29 29 29 29 29 27 26 26 26 25 25 24 24 23 23 23 23 23 23 23 23 23 23 22 21 21 21 21 21 20 20 21 21 21 21 21 20 21 21 23 24 26 27 28 28 27 27 27
24 23 22 21 19 18 16 14 12 11 11 10 9 8 8 7 6 5 5 5 6 7 8 9 11 13 14 16 18 20 22 24 25 26 26 27 27 28 28 29 29 28 27 26 25 25 24 24 23 23 22 22 22 23 23 23 22 22 22 21 21 20 20 20 20 19 18 19 19 19 19 19 18 18 18 20 21 22 23 25 26 27 27 26 26
21 20 19 17 16 14 13 11 11 10 10 9 8 7 6 5 4 4 4 4 5 6 7 9 11 13 15 16 18 20 22 23 24 25 25 26 26 27 27 27 27 26 26 25 24 24 24 23 22 22 22 21 22 22 22 22 21 20 20 20 19 19 19 19 19 17 17 17 18 18 17 17 17 16 17 17 18 18 19 21 23 25 25 24 25
17 17 16 14 13 12 11 11 10 10 9 8 7 6 5 4 3 2 3 4 4 6 8 9 11 13 14 16 18 19 21 22 23 24 25 26 26 27 27 26 25 25 25 24 23 23 23 22 22 21 21 21 21 21 21 20 19 19 18 18 17 17 18 17 16 15 15 16 16 16 15 15 15 15 15 15 15 15 16 19 21 23 23 23 25
14 14 13 12 11 11 11 10 10 9 9 8 6 5 4 3 2 2 3 4 5 6 8 10 11 13 14 16 17 19 20 21 23 24 25 26 27 27 26 25 25 25 25 24 23 22 21 21 21 21 21 21 21 20 19 18 18 18 17 16 16 15 15 14 13 13 13 13 13 13 13 13 13 13 13 13 13 14 16 18 20 21 22 24 25
12 12 11 11 10 10 10 10 10 9 8 7 5 4 3 2 1 2 3 4 6 7 8 10 11 12 14 16 17 18 19 21 22 24 25 26 27 27 26 25 25 25 25 24 23 21 20 20 20 21 21 21 20 19 18 17 16 16 15 14 13 12 12 12 11 11 11 10 10 10 11 11 11 12 12 12 13 14 16 18 19 20 22 25 25
11 11 10 10 10 10 10 10 10 9 7 6 4 3 2 1 1 2 3 5 6 7 9 10 11 12 14 16 17 18 19 20 22 23 25 26 27 27 26 26 26 26 26 24 22 21 20 20 20 21 20 20 19 18 17 15 14 14 13 12 11 11 10 10 10 9 9 8 8 7 7 7 9 10 11 11 12 14 16 17 19 21 24 25 25
10 9 9 9 10 10 10 10 9 8 6 5 4 3 2 1 1 2 4 5 6 8 9 11 12 13 14 16 17 18 18 19 21 23 24 26 26 26 26 26 26 26 25 24 22 21 20 20 20 20 20 19 18 17 15 13 13 13 12 11 10 9 9 8 8 8 7 5 4 3 2 4 7 9 10 11 13 14 16 17 19 22 25 26 25
9 9 9 9 10 10 10 9 8 7 5 4 3 2 2 1 1 3 4 6 7 8 10 11 13 13 14 16 17 18 18 19 21 22 24 25 26 26 26 26 27 27 26 24 22 21 20 19 19 18 18 18 17 15 13 12 11 12 12 11 9 9 8 8 8 6 4 2 1 1 3 4 6 9 11 12 14 16 17 18 20 22 24 25 24
9 9 9 10 10 10 9 8 7 6 5 4 3 2 1 1 2 3 5 6 8 9 10 12 13 14 15 15 16 17 18 19 20 22 23 25 26 26 26 26 27 27 26 24 23 22 21 19 18 18 18 18 16 14 12 10 10 11 11 10 9 8 8 7 6 4 1 2 3 5 6 8 9 11 12 13 15 16 17 18 20 21 23 23 23
8 9 9 10 10 9 8 7 6 6 4 3 2 1 1 1 3 4 5 7 8 10 11 12 14 15 15 16 16 17 18 19 20 21 23 24 25 25 25 25 26 26 26 25 23 22 21 19 18 18 19 18 16 13 11 9 9 10 10 9 8 8 7 6 4 2 1 4 6 7 8 10 11 12 12 13 15 16 17 18 19 20 22 22 22
9 9 9 9 9 8 7 6 6 5 4 3 2 1 1 2 3 4 6 7 9 10 11 12 14 15 16 16 16 17 18 19 20 21 22 24 25 25 25 25 25 26 26 26 24 23 21 19 18 18 18 18 16 13 11 9 9 9 9 8 7 7 5 4 3 1 2 5 7 8 9 10 11 12 12 13 15 16 17 18 19 20 21 22 22
9 9 9 8 8 7 6 6 5 4 3 2 1 1 1 2 4 5 6 7 9 10 12 13 14 15 16 17 17 17 18 19 20 21 22 23 24 25 24 24 24 25 26 26 26 24 22 20 18 18 18 17 16 14 12 10 9 8 8 7 7 6 5 3 2 2 3 5 8 10 11 11 11 11 11 13 15 16 18 19 19 20 21 21 21
8 8 8 8 7 6 6 5 4 3 2 2 1 1 2 3 4 6 7 8 9 10 12 13 14 15 17 17 17 17 18 19 20 20 21 22 23 24 24 24 23 24 25 26 26 25 23 20 19 18 17 16 15 14 12 10 9 8 7 7 6 6 5 4 3 4 4 6 8 11 12 11 10 10 11 13 15 17 18 18 19 19 19 20 20
7 7 7 7 7 6 5 4 4 3 3 2 2 2 3 4 5 6 7 9 10 11 12 13 14 15 16 17 18 18 18 19 19 20 21 22 23 24 24 23 23 23 24 25 26 25 23 21 20 18 17 16 15 14 13 11 8 7 6 6 5 6 6 6 5 5 5 6 8 10 11 11 11 11 12 14 16 17 18 18 18 18 18 18 18
7 7 7 7 7 6 5 5 4 4 3 2 2 3 4 5 6 7 8 9 10 11 12 13 14 15 16 17 18 18 18 19 19 19 20 21 22 23 23 23 23 23 23 23 24 25 24 22 20 18 17 16 15 14 14 12 9 7 6 6 6 6 6 6 6 6 6 8 9 10 11 11 11 12 13 15 15 16 17 17 17 17 17 17 18
6 6 7 7 7 6 5 5 4 4 4 3 3 4 5 5 6 8 8 9 10 11 12 13 14 15 16 17 18 18 18 18 19 19 19 20 21 22 23 23 22 22 22 22 23 24 24 23 21 19 17 16 15 14 14 14 11 9 7 7 7 7 6 6 7 7 8 8 10 10 11 12 12 13 13 14 15 15 16 16 16 16 16 16 17
Wind_Direction
247 248 249 250 252 254 255 256 256 256 256 256 256 257 258 259 258 258 258 259 260 261 262 263 263 264 264 264 263 264 265 265 265 267 268 269 271 272 273 274 275 276 276 277 277 277 277 278 278 278 277 277 276 275 275 274 273 273 272 272 271 270 269 268 268 268 270 269 269 270 270 270 269 269 269 269 269 268 266 264 263 262 262 261 261
249 250 251 251 252 255 256 256 257 257 256 255 256 256 258 258 258 258 258 259 260 261 262 263 264 265 266 266 266 266 266 265 265 267 268 269 271 272 273 275 276 277 278 278 278 278 278 278 278 278 278 278 278 277 276 276 275 274 273 273 272 272 271 271 270 270 271 271 270 270 270 270 269 269 269 269 269 268 266 265 264 263 262 261 261
253 253 252 251 251 254 256 257 257 256 256 256 256 256 257 258 259 259 259 259 260 261 262 263 263 265 266 268 269 269 268 267 267 267 268 269 271 272 273 275 276 277 278 279 279 279 278 278 278 278 278 278 277 277 277 276 276 276 275 273 273 272 272 271 271 271 272 272 271 271 270 270 270 269 269 268 268 268 267 266 265 264 263 262 261
257 256 254 252 252 253 255 257 257 256 256 256 256 256 256 257 259 259 259 260 260 261 261 262 263 265 266 268 270 270 270 269 268 268 269 270 271 273 274 275 276 277 277 278 279 278 278 278 278 279 279 279 279 278 277 277 276 276 276 275 274 273 272 271 271 271 272 272 272 271 270 270 270 269 269 268 268 267 267 267 267 265 263 262 261
259 258 257 255 254 254 254 256 257 257 257 256 256 256 256 256 257 257 258 259 260 260 260 262 263 264 266 268 269 270 270 269 269 269 271 272 273 274 275 276 276 276 277 277 278 278 278 278 279 279 280 281 281 281 280 279 279 278 277 276 276 275 274 273 272 271 271 271 272 271 271 270 270 269 268 268 268 267 266 266 266 267 265 263 261
259 258 259 258 257 257 256 256 257 258 258 257 257 256 255 255 256 256 257 258 258 259 260 261 263 264 266 267 269 269 270 270 270 271 272 274 275 275 276 276 276 276 277 277 278 279 279 279 279 280 281 281 282 282 282 282 281 280 279 278 277 277 276 274 273 272 272 271 271 271 270 270 269 269 268 267 267 267 267 266 265 266 266 265 263
262 260 260 260 260 260 260 258 257 257 258 258 258 257 255 254 254 255 256 257 257 259 260 262 263 265 266 266 267 268 269 270 271 272 274 275 276 276 276 276 277 277 278 278 279 279 279 280 280 281 281 281 282 282 282 282 282 281 280 280 279 278 277 276 275 274 273 272 271 270 270 269 269 268 268 267 267 266 266 266 265 264 265 265 264
267 264 263 262 262 262 262 261 259 258 257 257 258 257 255 254 254 255 255 255 256 257 259 260 261 263 265 266 267 267 268 269 271 273 275 276 276 277 277 277 277 278 278 279 279 279 279 280 281 281 282 282 282 282 283 283 282 282 281 281 280 279 278 277 276 275 274 273 271 270 270 269 268 268 268 267 266 265 265 264 264 264 264 264 263
269 268 266 265 264 263 262 262 261 259 258 257 257 257 256 254 254 254 254 255 256 256 257 259 259 261 263 264 266 267 267 269 271 273 275 276 277 278 278 278 278 278 279 279 279 279 279 280 281 281 281 282 282 282 282 282 283 283 282 282 281 280 279 278 277 276 275 274 273 271 270 269 268 268 267 267 266 265 264 263 263 263 263 263 262
270 269 268 268 265 263 262 262 261 260 259 258 257 256 256 254 253 253 253 254 255 256 257 258 258 259 261 262 264 266 267 270 273 275 276 277 278 278 279 279 279 279 279 279 279 279 280 280 281 281 281 281 282 282 282 282 282 282 282 282 281 280 279 278 277 276 275 275 274 272 271 269 268 267 267 266 265 265 264 263 263 263 262 262 261
270 269 269 268 266 264 262 261 260 260 259 258 257 256 255 254 253 251 251 253 254 255 257 258 258 258 259 260 262 265 268 272 274 277 278 278 278 278 278 279 279 280 280 280 280 280 281 281 281 282 282 282 282 282 282 282 282 282 282 281 281 280 280 279 277 276 275 274 273 272 271 270 269 267 267 266 265 264 263 262 262 262 261 260 260
271 269 268 268 266 264 263 261 260 259 259 258 257 255 253 252 251 250 250 250 252 255 257 258 257 257 258 259 262 265 269 272 274 277 279 279 279 278 278 279 279 280 281 281 281 281 281 282 282 282 283 283 283 283 283 283 282 282 282 282 281 281 280 278 277 276 275 274 273 272 270 269 269 268 266 266 265 264 263 262 262 261 260 259 258
272 271 269 268 266 264 263 262 261 259 258 258 256 254 252 251 250 250 249 249 250 253 256 257 256 256 257 260 264 267 270 271 272 275 278 280 279 278 278 279 280 281 282 282 282 282 282 283 283 283 283 283 283 284 284 284 283 283 283 283 282 282 280 279 277 276 275 274 273 271 270 269 268 267 266 265 264 263 263 262 261 260 260 259 258
273 272 271 269 267 265 263 262 261 260 258 257 255 253 251 250 249 249 249 248 249 251 253 255 255 256 258 263 266 268 269 269 270 274 277 280 280 278 278 280 281 282 282 283 283 282 283 283 283 284 284 284 284 284 284 284 284 284 284 283 283 282 281 280 278 277 276 274 273 271 270 268 267 266 266 265 264 263 262 262 261 260 260 259 258
273 272 271 269 268 266 263 261 260 259 258 256 254 252 250 249 248 248 247 247 248 250 252 253 254 256 261 266 268 268 268 269 271 274 277 279 280 279 279 281 283 283 283 283 283 283 283 283 284 284 285 285 285 285 285 285 285 284 284 284 284 283 282 280 279 277 276 275 273 272 270 268 267 265 265 264 263 262 262 261 260 260 259 259 258
272 272 270 269 267 265 263 261 260 258 257 255 253 250 248 247 247 247 247 248 251 252 253 254 255 258 263 266 268 268 269 269 271 274 276 278 279 279 280 282 284 283 283 283 283 283 284 284 285 286 286 286 286 285 285 286 286 285 285 285 284 283 282 280 278 277 275 274 273 271 270 268 266 265 263 262 262 261 261 260 259 259 258 258 257
271 271 270 268 266 264 261 260 259 257 256 254 251 249 246 246 246 247 247 249 251 252 253 254 256 259 262 264 266 269 271 271 273 275 276 277 278 279 281 283 285 285 284 284 284 284 285 285 286 287 287 287 287 286 286 287 287 286 286 286 285 284 282 281 278 276 274 272 271 270 269 268 267 265 263 262 261 260 259 258 258 258 258 257 256
271 270 270 268 266 263 260 258 257 256 254 252 250 247 244 244 246 248 248 249 251 252 253 254 256 258 260 262 266 269 272 273 274 275 276 277 278 279 280 283 285 285 285 285 285 285 286 286 287 287 287 287 287 287 287 287 287 287 286 286 285 284 283 281 279 276 274 272 270 269 268 267 266 265 264 262 261 259 257 257 256 256 256 256 255
270 269 269 267 265 262 259 256 256 254 253 250 247 244 242 243 246 248 249 250 251 253 254 255 256 258 259 261 265 269 272 274 275 276 277 278 278 279 281 282 284 285 286 285 286 286 287 287 287 287 287 287 287 287 287 287 287 287 287 286 285 284 283 281 278 276 274 272 270 269 267 266 265 264 263 262 260 258 257 256 255 254 254 255 255
269 268 267 266 263 260 257 254 253 252 251 249 245 240 240 242 245 248 249 250 251 252 254 255 255 256 259 262 266 269 272 274 276 277 278 279 280 281 282 283 284 285 285 286 286 287 288 288 287 287 287 287 287 287 287 288 288 288 287 286 285 284 282 280 278 276 274 272 270 269 267 266 265 264 263 262 260 258 257 255 254 253 252 253 253
267 266 265 263 260 258 254 252 251 251 249 245 240 237 239 242 244 246 247 248 249 249 250 250 252 257 261 265 267 270 273 276 278 279 280 281 282 284 284 284 284 285 286 287 288 288 288 288 288 288 288 288 288 288 288 288 288 287 286 285 284 283 281 279 277 275 273 272 270 269 268 266 265 264 263 261 260 258 257 255 254 252 251 251 251
266 264 262 260 258 255 252 250 250 249 246 240 236 236 239 240 241 243 243 244 245 245 245 247 252 259 264 268 271 274 276 278 280 281 281 282 283 285 285 285 285 286 286 287 288 288 288 289 289 289 289 289 289 289 289 288 288 287 286 285 283 282 280 278 277 275 273 272 271 269 268 266 265 264 262 261 259 258 256 254 253 252 250 249 249
264 262 259 257 255 253 250 248 247 245 242 238 234 234 236 237 238 239 240 241 243 246 249 252 257 262 265 269 274 278 279 281 282 282 283 283 284 285 285 285 286 287 288 288 289 289 289 290 290 290 290 290 290 290 289 289 288 287 286 284 282 280 279 277 276 274 273 272 270 269 267 266 264 263 261 260 258 257 255 253 252 251 250 248 247
262 260 256 253 250 249 247 246 243 239 237 236 232 229 230 232 233 236 239 242 245 248 252 256 260 264 266 268 272 277 281 284 285 284 285 285 285 286 286 287 288 289 290 290 290 291 291 291 291 291 291 291 291 290 290 289 288 287 285 283 281 279 278 277 275 274 273 271 270 268 266 265 263 262 260 259 258 256 255 253 251 249 248 247 245
259 256 252 248 245 244 243 241 237 233 231 230 226 222 223 226 229 234 239 243 246 249 253 257 260 264 267 269 272 277 282 285 287 287 287 288 288 288 289 291 292 293 292 292 292 292 292 292 292 292 292 292 292 291 290 289 288 286 284 282 280 279 277 276 274 273 271 270 269 267 266 264 262 261 260 259 258 256 254 252 250 248 246 245 245
256 252 247 242 240 238 236 233 230 227 225 223 219 218 220 223 228 234 239 243 247 252 255 259 263 266 269 272 274 277 281 286 287 288 289 290 291 292 293 294 295 295 294 294 293 293 293 293 292 292 293 293 292 292 290 289 287 285 284 282 280 279 277 276 274 272 271 270 269 268 266 265 263 262 261 259 258 256 254 251 249 247 246 245 245
251 245 239 235 232 229 225 222 221 219 217 214 213 215 219 223 227 232 238 243 248 252 257 262 267 271 274 277 279 281 283 286 289 291 293 294 295 296 296 296 296 296 295 294 294 294 293 293 293 294 294 293 293 291 290 288 286 284 283 282 280 279 277 275 274 273 272 271 269 268 266 265 264 263 261 260 258 256 254 251 248 245 244 244 243
242 235 230 225 222 217 213 212 212 211 209 208 209 211 216 220 226 232 239 244 248 253 259 265 270 274 278 281 283 285 287 290 292 294 296 297 297 297 297 297 296 296 295 295 295 294 294 294 295 295 294 294 292 290 288 287 285 284 283 282 281 280 278 276 275 273 272 270 269 268 266 264 263 262 261 260 258 256 253 250 247 245 242 241 240
230 224 218 212 208 205 203 203 202 201 201 203 206 210 215 220 227 236 242 246 250 256 262 267 271 276 281 284 286 289 292 294 295 297 298 298 298 298 298 298 298 297 297 297 296 296 296 296 296 295 294 293 292 290 289 287 285 283 282 282 282 281 280 279 277 274 272 270 269 268 266 264 262 261 260 258 257 255 252 249 246 244 241 239 238
216 210 204 198 195 194 194 193 193 192 193 196 201 207 214 221 230 239 244 248 254 260 266 271 275 279 284 287 290 293 295 296 297 299 300 301 301 301 301 301 301 300 300 300 299 298 298 297 296 296 295 294 293 292 290 288 285 283 282 282 282 282 282 281 279 275 272 270 269 267 266 264 262 260 259 257 256 254 250 247 245 243 240 238 237
201 195 190 187 187 188 188 188 188 189 191 194 199 204 211 221 231 238 243 250 258 266 273 278 281 284 286 288 291 294 297 299 301 304 304 305 305 305 306 306 305 304 304 303 302 301 300 299 298 297 297 296 294 292 290 287 285 284 283 284 284 283 282 282 280 277 272 270 269 268 267 265 263 261 258 256 254 251 247 244 242 241 239 237 235
183 180 180 181 182 182 182 181 183 185 189 194 200 205 212 220 228 236 245 255 264 272 278 283 287 289 289 290 294 299 304 306 308 309 309 310 310 311 311 310 308 307 306 306 304 303 303 301 300 300 299 297 295 293 291 288 286 286 287 287 286 284 282 282 281 278 274 271 270 269 267 265 264 262 259 256 252 248 244 242 240 239 238 235 233
166 169 172 174 174 174 174 175 178 182 187 193 201 208 215 221 227 236 249 260 269 277 284 289 292 295 298 302 306 309 312 313 314 314 314 315 315 315 315 313 312 310 310 309 308 307 307 304 303 302 300 298 296 295 293 291 289 290 290 288 286 284 282 282 282 280 275 272 270 269 267 265 265 264 260 255 249 244 241 239 238 238 235 232 230
155 159 162 165 168 170 171 173 177 183 190 198 205 212 217 223 229 238 249 258 267 278 288 294 299 305 311 315 317 317 318 319 319 318 319 319 319 319 318 317 317 316 315 313 312 311 310 308 306 304 302 299 298 297 296 295 294 293 292 290 287 285 283 283 281 279 275 272 271 270 268 267 265 263 259 253 246 242 239 238 237 235 232 228 226
150 154 157 161 164 167 170 173 179 187 195 202 207 209 213 220 227 237 248 259 268 279 289 298 307 315 320 321 322 323 324 324 324 323 323 323 323 323 323 323 323 322 320 318 317 315 313 311 308 306 303 301 300 299 299 298 297 295 293 292 289 286 284 283 281 278 276 274 272 270 269 267 264 261 257 251 245 242 240 238 234 231 227 224 221
149 153 156 158 160 163 168 174 180 188 193 196 197 200 205 212 221 235 255 270 278 285 296 307 316 321 324 326 328 328 329 329 329 329 329 329 328 328 328 327 326 325 323 322 320 318 317 315 312 309 306 303 301 301 301 302 301 299 296 294 291 287 285 284 282 280 279 277 274 271 269 265 261 259 256 250 245 243 239 234 229 224 221 218 215
150 153 155 158 161 165 171 176 181 185 186 186 188 192 197 205 219 241 267 281 290 301 312 319 324 326 328 330 331 331 332 334 335 335 335 335 334 333 332 331 330 328 325 323 322 320 320 318 315 313 310 308 306 305 305 305 305 303 300 297 294 289 286 285 283 282 281 279 276 272 267 262 258 257 256 250 243 238 232 225 219 216 213 210 207
153 155 157 159 164 168 173 177 180 180 178 178 180 184 189 200 222 253 278 293 307 318 322 325 329 331 331 332 333 334 336 338 340 341 341 340 338 337 336 336 335 333 330 326 324 323 322 321 319 317 315 313 311 310 309 308 309 308 306 301 296 291 289 288 286 285 285 282 276 270 264 258 254 254 252 244 234 227 219 212 208 206 204 201 198
155 156 158 161 166 170 174 176 176 173 170 171 175 180 187 200 228 266 293 310 321 326 328 330 332 333 333 334 335 337 338 341 343 344 344 344 343 341 341 340 340 339 336 332 329 326 325 324 323 321 319 318 317 315 314 312 312 312 310 305 299 295 294 294 293 291 289 285 278 272 265 257 250 246 241 231 221 212 205 201 199 198 196 193 191
156 158 161 165 168 170 171 170 168 166 166 169 173 177 184 201 243 293 317 326 329 329 331 332 333 333 335 336 338 340 341 343 344 346 347 347 346 345 345 345 344 343 341 337 334 331 328 328 328 327 325 323 322 320 318 316 315 316 315 311 307 305 304 303 302 299 294 288 283 278 267 252 240 233 225 216 207 201 196 193 193 192 189 187 186
157 161 164 166 168 168 166 163 163 163 166 170 173 174 181 204 274 321 332 334 334 334 335 335 334 334 336 338 340 342 343 343 345 347 349 350 349 349 349 348 347 346 344 342 339 335 333 332 332 331 330 328 326 324 322 321 322 324 325 324 320 315 312 313 313 306 297 291 291 286 265 238 224 216 207 200 197 195 192 189 187 185 183 182 183
160 163 164 166 166 164 160 159 161 164 165 167 168 172 185 216 297 332 338 340 339 339 340 339 337 336 337 339 342 344 344 345 347 349 350 352 353 352 352 352 351 349 348 346 344 340 338 337 336 336 335 334 331 329 326 326 328 332 333 332 327 320 318 321 322 314 301 296 303 302 250 210 201 194 187 183 183 182 181 179 178 178 179 180 181
162 162 162 163 163 163 162 163 164 164 162 162 166 176 198 246 314 337 343 343 342 342 343 343 342 341 341 342 343 345 346 348 349 350 351 354 355 355 355 355 354 353 352 350 349 346 345 343 343 343 342 340 337 334 331 330 332 336 337 335 330 325 323 324 323 318 312 323 19 83 124 146 158 162 163 164 165 165 166 168 169 172 176 178 178
164 162 160 160 161 164 166 166 163 159 158 159 164 175 218 296 332 343 346 347 346 345 346 347 347 346 345 345 346 348 349 350 351 352 353 355 357 357 357 357 357 356 355 355 353 352 350 349 349 350 350 347 344 341 339 336 335 338 340 339 336 333 330 329 328 326 336 99 109 114 120 126 134 141 147 153 157 158 159 162 165 168 171 174 175
168 165 162 161 162 165 166 164 161 160 161 163 166 182 283 326 341 346 348 350 349 348 348 349 351 352 350 348 348 350 351 351 353 354 355 356 358 359 359 359 359 359 358 358 357 356 355 354 354 355 355 354 352 350 348 344 341 344 347 346 343 341 341 340 341 344 106 126 125 127 129 130 133 136 141 148 155 158 159 161 164 165 167 170 171
170 167 164 164 165 166 166 165 164 164 166 171 178 206 321 337 344 347 349 351 351 351 351 352 354 355 354 351 350 350 351 352 354 355 356 357 359 360 0 360 360 0 1 1 1 0 359 358 358 358 359 359 360 360 359 354 351 353 356 355 352 353 355 357 5 45 126 135 135 137 137 134 133 135 139 144 151 156 158 160 162 163 164 166 167
168 167 166 166 168 169 169 168 168 169 172 180 195 262 321 333 340 346 349 350 352 352 352 352 353 354 354 353 351 350 351 352 354 356 357 358 359 1 2 1 1 2 3 3 4 4 3 3 3 3 3 5 6 7 7 3 360 360 3 4 6 11 18 24 46 88 124 141 146 147 143 135 131 134 139 145 150 154 155 157 159 160 162 164 166
171 171 170 171 172 173 172 172 174 179 189 202 228 284 316 330 338 343 346 348 349 350 350 350 350 351 352 352 351 350 350 352 354 355 357 359 360 1 2 2 2 3 4 5 6 6 6 7 7 6 6 8 11 13 12 11 8 7 9 12 17 26 33 45 73 102 122 140 151 154 152 144 136 135 139 144 149 153 155 157 159 161 163 165 167
181 181 180 180 181 182 184 188 193 201 213 227 252 292 317 329 335 339 341 343 344 346 346 347 347 348 350 351 351 350 349 350 352 354 357 359 1 1 2 3 3 3 5 6 7 7 8 10 10 9 8 10 14 17 18 18 19 19 20 23 30 39 49 61 80 102 121 136 149 156 158 155 149 144 142 144 147 151 154 156 158 161 163 165 167
187 187 188 190 192 193 195 197 202 210 225 245 269 296 314 324 329 333 337 339 341 342 343 344 344 345 347 349 350 350 349 349 351 353 356 359 0 1 2 4 4 4 6 7 8 9 10 12 13 12 11 12 17 21 23 23 26 31 35 37 43 53 65 75 84 97 115 133 145 152 156 156 152 149 148 148 149 151 153 154 156 158 159 160 163
189 191 194 197 199 200 203 208 215 228 244 261 278 295 308 317 323 328 332 335 338 340 341 342 342 343 345 347 349 349 348 349 350 352 355 358 360 1 2 3 5 5 6 7 9 10 11 13 14 15 14 16 20 24 26 27 29 35 42 47 53 64 77 89 95 99 109 124 137 145 151 153 152 151 151 150 150 151 153 154 155 156 156 156 158